Precipitable_Water
0.91 0.88 0.83 0.74 0.65 0.64 0.62 0.63 0.63 0.59 0.56 0.54 0.50 0.49 0.48 0.49 0.52 0.52 0.52 0.51 0.47 0.44 0.44 0.45 0.47 0.48 0.49 0.49 0.49 0.46 0.43 0.43 0.41 0.41 0.41 0.43 0.43 0.43 0.42 0.42 0.41 0.40
0.93 0.93 0.90 0.83 0.75 0.71 0.67 0.66 0.65 0.64 0.62 0.63 0.61 0.58 0.56 0.55 0.55 0.56 0.55 0.55 0.54 0.51 0.48 0.47 0.48 0.49 0.50 0.49 0.48 0.45 0.41 0.41 0.40 0.43 0.37 0.37 0.39 0.41 0.40 0.40 0.37 0.36
0.95 0.94 0.92 0.85 0.81 0.78 0.71 0.70 0.71 0.71 0.69 0.68 0.70 0.69 0.67 0.66 0.62 0.63 0.62 0.60 0.57 0.56 0.53 0.51 0.53 0.55 0.54 0.52 0.51 0.48 0.44 0.42 0.43 0.45 0.43 0.39 0.40 0.40 0.41 0.40 0.37 0.36
0.93 0.92 0.93 0.93 0.88 0.85 0.81 0.77 0.77 0.78 0.78 0.75 0.74 0.74 0.74 0.73 0.71 0.69 0.68 0.67 0.64 0.63 0.61 0.57 0.55 0.57 0.58 0.57 0.56 0.53 0.52 0.49 0.49 0.51 0.49 0.47 0.45 0.44 0.43 0.43 0.40 0.39
0.93 0.93 0.94 0.96 0.96 0.93 0.89 0.85 0.83 0.83 0.83 0.84 0.84 0.84 0.82 0.79 0.77 0.77 0.75 0.73 0.71 0.69 0.67 0.66 0.63 0.62 0.62 0.61 0.57 0.58 0.58 0.56 0.56 0.54 0.52 0.50 0.51 0.50 0.46 0.47 0.45 0.44
0.93 0.94 0.97 0.99 1.01 0.97 0.91 0.90 0.90 0.88 0.88 0.87 0.86 0.90 0.92 0.92 0.90 0.88 0.87 0.83 0.80 0.78 0.75 0.72 0.69 0.67 0.67 0.65 0.61 0.60 0.62 0.60 0.62 0.61 0.56 0.54 0.55 0.55 0.54 0.52 0.52 0.50
0.89 0.92 0.97 0.99 0.99 1.03 0.96 0.93 0.95 0.94 0.93 0.93 0.94 0.92 0.94 0.93 0.93 0.94 0.94 0.93 0.91 0.90 0.86 0.83 0.79 0.76 0.75 0.72 0.68 0.63 0.64 0.64 0.63 0.63 0.61 0.59 0.60 0.59 0.58 0.56 0.54 0.53
0.89 0.91 0.92 0.92 0.92 1.02 0.97 0.96 0.98 0.99 0.99 0.98 0.96 0.96 0.97 0.96 0.97 0.98 0.98 0.97 0.95 0.95 0.94 0.95 0.93 0.90 0.86 0.82 0.77 0.74 0.69 0.68 0.65 0.63 0.61 0.61 0.62 0.61 0.62 0.61 0.58 0.56
0.96 0.94 0.94 0.95 0.97 1.00 1.00 1.02 1.03 1.04 1.07 1.01 1.00 1.00 1.02 1.00 0.99 1.00 1.01 1.02 1.01 0.99 0.97 0.97 0.96 0.94 0.94 0.92 0.88 0.85 0.82 0.78 0.75 0.71 0.67 0.64 0.62 0.63 0.64 0.67 0.66 0.64
0.93 0.95 0.93 0.96 0.97 1.01 1.03 1.04 1.06 1.04 1.08 1.06 1.04 1.04 1.03 1.03 1.02 1.01 1.01 1.01 1.01 1.01 1.00 0.99 0.96 0.95 0.95 0.94 0.94 0.93 0.92 0.90 0.89 0.85 0.81 0.78 0.75 0.74 0.74 0.75 0.74 0.73
0.95 0.95 0.96 0.99 0.98 0.98 0.99 1.01 1.02 1.02 1.06 1.05 1.05 1.04 1.06 1.05 1.05 1.05 1.04 1.03 1.00 1.00 1.01 1.00 0.99 0.97 0.97 0.98 0.97 0.97 0.96 0.94 0.93 0.93 0.92 0.91 0.91 0.90 0.89 0.87 0.85 0.82
0.95 0.95 0.94 0.96 0.96 0.97 0.97 0.98 0.98 0.97 1.00 1.10 1.09 1.03 1.03 1.04 1.03 1.04 1.04 1.03 1.02 1.02 1.03 1.04 1.02 0.99 0.98 0.99 0.99 0.99 0.99 0.95 0.94 0.93 0.93 0.93 0.93 0.93 0.92 0.91 0.90 0.89
0.88 0.91 0.93 0.96 0.98 0.98 1.00 0.99 0.97 0.98 1.00 1.00 1.06 1.05 1.00 1.00 1.01 1.00 1.02 1.02 1.02 1.02 1.03 1.04 1.02 1.00 0.98 0.98 0.98 0.99 0.98 0.95 0.93 0.93 0.93 0.94 0.93 0.92 0.92 0.92 0.91 0.90
0.92 0.95 0.96 0.96 0.97 0.98 1.01 1.04 1.03 1.01 1.00 1.03 1.08 1.02 1.01 1.00 1.00 1.01 1.02 1.01 1.00 0.99 0.99 0.99 1.00 1.00 1.00 0.97 0.91 0.86 0.84 0.91 0.94 0.92 0.93 0.94 0.94 0.93 0.92 0.91 0.91 0.90
0.75 0.82 0.88 0.92 0.89 0.88 0.91 0.96 1.00 1.00 1.00 1.00 1.01 1.00 1.01 1.00 1.01 1.00 0.97 0.96 0.97 0.98 0.98 0.98 0.96 0.95 0.97 0.96 0.93 0.89 0.86 0.84 0.86 0.89 0.92 0.92 0.93 0.93 0.93 0.91 0.90 0.88
0.60 0.61 0.60 0.63 0.66 0.69 0.72 0.75 0.76 0.78 0.80 0.82 0.82 0.83 0.84 0.85 0.85 0.86 0.86 0.88 0.90 0.93 0.95 0.96 0.96 0.97 0.97 0.97 0.97 0.95 0.93 0.92 0.91 0.90 0.89 0.87 0.85 0.84 0.86 0.89 0.90 0.90
0.54 0.55 0.56 0.56 0.57 0.60 0.61 0.62 0.63 0.65 0.66 0.68 0.70 0.72 0.74 0.78 0.78 0.76 0.76 0.78 0.79 0.80 0.79 0.82 0.87 0.90 0.93 0.96 0.98 0.98 0.96 0.93 0.91 0.92 0.92 0.89 0.87 0.85 0.83 0.83 0.83 0.84
0.45 0.47 0.47 0.48 0.49 0.50 0.52 0.54 0.55 0.56 0.57 0.58 0.59 0.59 0.62 0.66 0.68 0.69 0.71 0.74 0.75 0.76 0.75 0.74 0.75 0.79 0.83 0.88 0.91 0.92 0.93 0.92 0.92 0.91 0.91 0.89 0.88 0.87 0.84 0.82 0.81 0.82
0.44 0.44 0.44 0.46 0.47 0.48 0.49 0.49 0.48 0.48 0.48 0.48 0.48 0.51 0.54 0.55 0.57 0.59 0.61 0.66 0.68 0.70 0.71 0.73 0.71 0.70 0.71 0.75 0.77 0.81 0.85 0.87 0.88 0.89 0.89 0.88 0.85 0.83 0.84 0.86 0.85 0.83
0.43 0.41 0.41 0.43 0.44 0.44 0.44 0.43 0.42 0.42 0.43 0.43 0.43 0.44 0.43 0.43 0.45 0.47 0.51 0.54 0.56 0.58 0.59 0.62 0.64 0.68 0.68 0.66 0.66 0.69 0.75 0.78 0.77 0.75 0.76 0.78 0.80 0.84 0.85 0.84 0.82 0.80
0.42 0.41 0.42 0.44 0.45 0.45 0.44 0.42 0.40 0.38 0.35 0.35 0.36 0.36 0.37 0.37 0.38 0.38 0.40 0.42 0.45 0.47 0.48 0.51 0.55 0.60 0.65 0.66 0.65 0.65 0.67 0.70 0.72 0.72 0.70 0.68 0.70 0.72 0.73 0.72 0.72 0.72
0.46 0.46 0.48 0.50 0.51 0.50 0.47 0.44 0.41 0.38 0.35 0.36 0.36 0.37 0.39 0.40 0.41 0.41 0.40 0.39 0.40 0.41 0.41 0.42 0.46 0.51 0.55 0.60 0.63 0.65 0.65 0.65 0.67 0.67 0.66 0.66 0.66 0.68 0.68 0.68 0.69 0.71
0.48 0.47 0.47 0.48 0.50 0.49 0.48 0.47 0.45 0.43 0.42 0.44 0.40 0.40 0.38 0.39 0.39 0.40 0.41 0.40 0.41 0.41 0.40 0.41 0.44 0.48 0.50 0.54 0.57 0.61 0.61 0.60 0.59 0.59 0.60 0.60 0.61 0.62 0.63 0.64 0.66 0.68
0.51 0.49 0.48 0.47 0.47 0.46 0.46 0.47 0.48 0.49 0.48 0.49 0.46 0.45 0.44 0.45 0.45 0.43 0.43 0.43 0.42 0.43 0.43 0.42 0.43 0.47 0.51 0.55 0.59 0.62 0.63 0.61 0.60 0.59 0.59 0.60 0.60 0.62 0.64 0.67 0.69 0.70
0.51 0.50 0.48 0.46 0.46 0.47 0.48 0.47 0.47 0.46 0.46 0.48 0.46 0.46 0.46 0.47 0.45 0.43 0.44 0.45 0.45 0.45 0.45 0.45 0.45 0.48 0.51 0.54 0.58 0.61 0.63 0.63 0.61 0.59 0.58 0.57 0.58 0.59 0.61 0.62 0.63 0.64
0.48 0.46 0.46 0.46 0.46 0.46 0.47 0.48 0.50 0.50 0.50 0.51 0.53 0.53 0.51 0.50 0.48 0.46 0.45 0.45 0.48 0.48 0.49 0.50 0.50 0.51 0.52 0.55 0.57 0.59 0.61 0.61 0.61 0.58 0.56 0.56 0.55 0.54 0.53 0.55 0.58 0.59
Wind_Speed
14 13 12 12 11 10 10 9 8 7 6 6 5 5 5 4 4 4 3 3 3 3 3 3 3 3 3 2 2 2 2 2 3 3 4 4 4 4 4 5 5 6
16 15 13 13 12 12 11 10 10 9 7 6 6 5 5 4 4 4 4 3 3 3 3 3 3 3 3 3 3 3 3 3 3 3 3 3 4 4 4 4 4 5
17 16 15 14 13 12 12 12 11 10 9 8 7 6 5 5 5 5 4 4 4 4 4 4 4 4 4 4 4 4 3 3 3 3 3 3 4 4 4 4 4 4
18 17 16 15 14 13 13 13 12 11 10 9 9 8 7 6 6 6 5 5 5 5 5 5 5 5 5 5 5 5 5 4 4 4 4 4 4 4 4 4 4 4
19 18 16 16 16 14 14 14 13 12 12 11 10 10 9 8 8 7 7 7 7 7 7 7 7 7 7 6 6 6 6 6 5 5 5 5 4 4 4 4 4 4
18 18 17 17 17 16 15 15 15 14 13 13 12 11 11 10 10 9 8 8 8 8 8 8 9 9 8 8 8 8 8 7 7 6 6 6 6 6 6 5 5 5
17 17 17 18 18 17 17 16 15 15 14 14 13 13 12 12 11 11 10 10 10 10 10 10 10 10 10 10 10 10 9 9 9 8 8 8 8 8 8 7 7 7
17 17 18 18 18 18 18 17 17 16 15 15 14 14 14 13 13 12 12 12 12 12 12 11 11 11 11 11 11 11 11 11 11 10 10 10 9 10 9 9 9 9
16 17 18 17 18 19 19 19 19 18 17 16 16 16 15 15 15 15 14 14 14 15 14 14 14 13 13 13 13 13 12 12 12 12 12 12 12 12 11 11 11 11
15 16 17 18 18 19 19 19 19 19 19 18 18 18 17 16 16 16 16 16 17 17 17 17 16 16 15 15 15 15 15 15 14 14 14 14 14 13 13 13 12 12
15 16 17 17 18 19 19 19 19 19 20 20 19 19 18 18 17 17 18 18 18 19 20 19 18 18 18 18 18 18 17 17 17 16 16 16 15 15 15 15 14 14
15 16 17 18 18 18 19 20 20 21 22 22 21 20 19 19 19 19 19 19 19 19 20 20 20 20 20 20 20 21 20 20 19 19 18 18 17 17 17 17 16 16
17 18 18 19 18 18 19 20 21 22 23 23 22 21 21 20 20 20 20 20 20 19 19 20 20 20 20 19 19 20 21 22 21 20 20 20 20 19 19 19 18 18
18 18 19 19 19 19 19 20 20 21 22 22 22 22 22 22 22 21 21 21 21 21 20 21 21 21 21 20 20 20 20 21 21 22 22 22 21 21 20 20 20 20
17 17 18 18 18 19 19 19 19 20 20 20 21 21 21 21 22 22 22 22 22 22 22 22 22 22 22 23 23 22 22 22 22 23 23 23 23 23 22 22 22 22
17 17 17 17 18 18 18 19 19 19 19 19 20 20 20 21 22 22 22 22 23 23 23 23 24 24 25 25 25 25 24 24 23 23 24 24 25 25 25 25 25 25
17 18 18 18 19 19 19 19 20 20 20 20 21 21 21 22 22 23 23 24 24 24 24 25 25 26 27 27 27 27 26 26 26 26 26 26 27 27 27 28 28 27
18 19 19 19 19 19 19 20 20 20 21 21 22 22 23 23 23 24 24 25 25 25 26 26 26 27 27 28 28 28 28 28 28 28 28 28 29 29 29 29 29 29
20 20 20 20 20 20 21 21 21 21 22 23 23 24 24 24 25 25 25 26 26 26 27 27 27 28 28 28 29 29 29 29 30 30 30 30 30 31 31 31 31 31
22 22 22 22 22 22 22 22 23 23 23 24 24 24 25 25 25 26 26 26 26 27 27 28 28 29 29 29 30 30 30 30 30 31 31 31 31 31 31 32 32 32
23 23 24 24 24 24 24 24 24 24 24 25 25 25 25 25 26 26 26 27 27 27 28 28 28 29 29 30 30 30 30 30 30 30 31 31 31 31 31 31 32 32
24 24 24 24 25 25 25 25 25 26 26 26 26 26 26 26 26 27 27 27 27 27 28 28 28 28 29 30 30 30 30 30 30 30 30 31 31 31 31 31 31 31
24 24 24 25 25 25 26 26 26 27 27 27 27 27 27 27 27 27 27 27 27 27 27 28 28 28 28 29 30 30 30 30 30 30 30 30 30 30 30 30 30 31
26 26 26 26 26 27 27 27 27 28 28 28 29 29 29 29 29 28 28 28 28 28 28 28 29 29 29 29 29 29 29 29 29 29 29 29 29 29 30 30 30 30
28 28 28 28 28 29 29 29 29 29 30 30 30 30 30 30 30 30 29 29 29 29 29 29 29 30 29 29 29 29 29 29 29 29 28 28 29 29 30 30 31 31
30 30 30 30 30 30 30 30 30 30 30 30 30 31 31 31 31 30 30 30 30 30 30 30 30 30 30 29 29 29 29 29 29 29 29 29 29 30 30 30 31 31
Wind_Direction
244 245 249 250 249 250 249 248 249 249 249 251 252 253 254 256 255 255 259 259 259 261 257 254 251 249 251 253 260 266 262 256 254 252 249 246 245 245 246 247 248 246
242 244 248 249 248 248 246 244 244 245 246 247 248 249 251 253 253 255 261 263 266 268 261 257 255 250 251 252 256 264 263 256 255 257 253 247 247 247 247 247 247 246
238 243 245 247 247 247 245 241 241 244 245 246 246 248 250 252 254 257 260 264 269 270 266 262 257 255 254 253 255 259 257 250 250 255 256 251 248 247 248 249 248 248
236 241 243 244 245 246 244 240 240 242 243 245 247 249 251 253 256 258 260 264 268 269 268 265 262 261 261 259 259 259 257 255 252 253 256 258 256 252 251 250 250 251
238 241 242 242 241 243 244 239 237 239 241 244 247 249 251 253 255 257 260 263 267 269 269 266 264 263 263 263 263 261 260 258 257 255 255 258 260 259 258 254 251 254
237 239 241 240 239 240 242 239 236 237 240 244 247 250 252 253 255 257 260 263 267 269 268 265 264 262 260 260 260 261 260 258 258 256 254 256 258 260 261 256 251 254
235 238 240 241 241 240 241 239 237 237 240 243 246 249 251 253 255 257 261 265 267 268 267 265 263 262 261 261 260 259 259 258 258 257 256 257 257 258 260 258 255 254
237 239 241 242 242 240 239 239 238 239 241 241 243 247 249 252 255 258 262 265 265 265 266 264 263 262 262 262 261 260 259 258 259 258 258 258 258 258 260 259 258 258
239 240 240 242 242 240 240 241 242 244 244 244 245 249 251 254 257 261 263 263 263 264 264 265 264 263 263 263 261 258 259 260 261 261 260 260 259 259 260 260 261 262
239 238 239 240 242 243 242 243 245 246 246 247 249 251 253 255 259 261 262 262 263 264 263 264 264 263 263 263 261 260 260 260 262 263 262 261 261 260 261 261 261 262
244 243 243 243 244 245 246 246 248 249 248 250 251 251 253 257 259 261 261 262 264 265 263 262 262 263 263 262 262 262 262 262 262 262 262 261 261 261 261 261 260 260
251 252 252 253 253 253 252 252 253 254 254 254 254 254 255 259 261 262 262 263 265 267 265 262 262 264 265 263 261 261 261 261 261 261 261 260 260 261 261 261 260 259
255 256 256 257 258 259 258 257 256 256 257 256 256 256 259 261 263 265 264 263 265 267 265 263 263 264 264 262 261 261 261 260 258 259 260 261 260 260 260 260 260 260
258 258 257 258 259 260 261 261 260 259 259 258 258 260 262 262 263 265 265 264 265 266 266 265 264 263 262 261 261 263 262 260 258 258 260 261 260 259 260 260 261 261
260 259 260 260 261 261 262 262 262 262 262 262 263 264 265 264 264 265 266 265 265 265 266 265 264 264 264 262 262 264 264 262 261 260 259 260 260 259 259 260 262 263
262 261 262 261 262 263 263 264 265 265 265 266 266 267 266 266 267 267 268 269 268 268 267 266 266 266 265 264 264 265 265 263 261 261 260 259 260 260 259 259 260 262
263 262 262 262 262 264 264 265 266 266 266 267 267 267 268 268 268 269 270 271 271 271 270 268 268 267 266 266 265 265 265 265 263 263 262 262 261 261 260 259 259 261
264 262 262 263 263 263 264 265 265 266 266 267 267 268 268 269 269 270 270 271 271 271 270 270 270 269 267 267 267 266 266 266 265 265 264 264 264 263 262 260 260 260
264 263 264 264 263 264 265 266 266 267 267 268 269 269 269 269 270 270 270 270 270 270 270 270 270 269 268 267 267 267 266 266 267 267 267 266 266 265 264 263 261 261
265 264 264 264 265 265 266 267 268 268 268 269 270 271 271 271 271 271 271 271 271 270 270 270 269 269 268 266 266 266 266 267 268 268 268 268 267 266 266 264 263 261
266 266 265 265 265 266 268 269 270 271 271 271 271 272 272 272 272 273 273 273 272 272 271 271 270 270 269 268 267 267 267 267 268 268 268 268 268 267 266 265 263 261
265 266 265 265 266 266 267 268 270 271 271 272 273 273 273 274 274 274 274 274 273 272 271 271 271 271 270 269 268 267 267 268 269 268 268 268 268 267 266 264 263 261
265 265 266 266 266 267 268 268 269 270 271 271 272 273 274 274 274 274 274 274 274 273 272 271 272 272 272 270 268 267 267 268 269 268 268 267 267 266 265 263 263 263
264 265 266 267 268 269 269 270 270 270 270 270 271 272 273 273 273 273 273 273 273 273 273 272 272 272 272 271 269 268 268 268 268 267 267 266 266 265 264 263 263 264
266 267 268 269 270 271 271 271 271 271 271 272 272 273 273 273 273 273 273 273 273 273 273 273 273 273 273 272 270 270 269 269 268 267 266 266 266 265 265 265 265 265
267 268 269 269 270 271 271 271 271 272 273 273 273 273 272 272 272 273 273 272 272 272 273 273 273 273 273 272 271 271 269 269 268 267 266 266 266 266 266 266 266 266